Time,TemperatureF,DewpointF,PressureIn,WindDirection,WindDirectionDegrees,WindSpeedMPH,WindSpeedGustMPH,Humidity,HourlyPrecipIn,Conditions,Clouds,dailyrainin,SoftwareType,DateUTC
2013-04-14 00:00:00,42.6,36.0,29.96,SSW,213,0.0,3.0,77,0.00,,,0.09,meteohub,2013-04-14 04:00:00,
2013-04-14 00:01:00,42.6,36.0,29.96,SSW,213,0.0,3.0,77,0.00,,,0.09,meteohub,2013-04-14 04:01:00,
2013-04-14 00:06:00,42.3,36.0,29.96,SSW,213,0.0,3.0,78,0.00,,,0.00,meteohub,2013-04-14 04:06:00,
2013-04-14 00:11:00,41.9,35.8,29.96,SSW,213,1.0,2.0,79,0.00,,,0.00,meteohub,2013-04-14 04:11:00,
2013-04-14 00:16:00,41.7,36.0,29.97,SSW,213,0.0,2.0,80,0.00,,,0.00,meteohub,2013-04-14 04:16:00,
2013-04-14 00:21:00,41.7,36.3,29.97,SSW,213,0.0,2.0,81,0.00,,,0.00,meteohub,2013-04-14 04:21:00,
2013-04-14 00:26:00,41.5,36.1,29.97,SSW,213,1.0,2.0,81,0.00,,,0.00,meteohub,2013-04-14 04:26:00,
2013-04-14 00:31:00,41.5,36.1,29.97,SSW,213,1.0,2.0,81,0.00,,,0.00,meteohub,2013-04-14 04:31:00,
2013-04-14 00:37:00,41.5,36.1,29.97,SSW,213,1.0,2.0,81,0.00,,,0.00,meteohub,2013-04-14 04:37:00,
2013-04-14 00:42:00,41.5,36.1,29.97,SSW,213,0.0,2.0,81,0.00,,,0.00,meteohub,2013-04-14 04:42:00,
2013-04-14 00:47:00,41.2,35.8,29.97,SSW,213,0.0,2.0,81,0.00,,,0.00,meteohub,2013-04-14 04:47:00,
2013-04-14 00:52:00,41.2,36.1,29.97,SSW,213,0.0,2.0,82,0.00,,,0.00,meteohub,2013-04-14 04:52:00,
2013-04-14 00:57:00,40.8,35.8,29.97,SSW,213,0.0,1.0,82,0.00,,,0.00,meteohub,2013-04-14 04:57:00,
2013-04-14 01:02:00,40.6,36.0,29.98,SSW,213,0.0,1.0,83,0.00,,,0.00,meteohub,2013-04-14 05:02:00,
2013-04-14 01:07:00,40.5,35.8,29.98,SSW,213,0.0,0.0,83,0.00,,,0.00,meteohub,2013-04-14 05:07:00,
2013-04-14 01:12:00,40.3,35.8,29.98,SSW,213,0.0,1.0,84,0.00,,,0.00,meteohub,2013-04-14 05:12:00,
2013-04-14 01:17:00,40.1,35.6,29.98,SSW,213,0.0,1.0,84,0.00,,,0.00,meteohub,2013-04-14 05:17:00,
2013-04-14 01:22:00,39.9,35.4,29.98,SSW,213,0.0,1.0,84,0.00,,,0.00,meteohub,2013-04-14 05:22:00,
2013-04-14 01:27:00,39.7,35.6,29.98,SSW,213,0.0,0.0,85,0.00,,,0.00,meteohub,2013-04-14 05:27:00,
2013-04-14 01:32:00,39.7,35.6,29.98,SSW,213,0.0,1.0,85,0.00,,,0.00,meteohub,2013-04-14 05:32:00,
2013-04-14 01:37:00,39.6,35.4,29.98,SSW,213,0.0,1.0,85,0.00,,,0.00,meteohub,2013-04-14 05:37:00,
2013-04-14 01:42:00,39.6,35.8,29.98,SSW,213,0.0,1.0,86,0.00,,,0.00,meteohub,2013-04-14 05:42:00,
2013-04-14 01:47:00,39.4,35.8,29.98,SSW,213,0.0,1.0,87,0.00,,,0.00,meteohub,2013-04-14 05:47:00,
2013-04-14 01:52:00,39.4,35.8,29.97,SSW,213,0.0,1.0,87,0.00,,,0.00,meteohub,2013-04-14 05:52:00,
2013-04-14 01:57:00,39.4,35.8,29.97,SSW,213,0.0,0.0,87,0.00,,,0.00,meteohub,2013-04-14 05:57:00,
2013-04-14 02:02:00,39.4,35.8,29.97,SSW,213,0.0,0.0,87,0.00,,,0.00,meteohub,2013-04-14 06:02:00,
2013-04-14 02:07:00,39.2,35.6,29.97,SSW,213,0.0,0.0,87,0.00,,,0.00,meteohub,2013-04-14 06:07:00,
2013-04-14 02:12:00,39.0,35.8,29.97,SSW,213,0.0,0.0,88,0.00,,,0.00,meteohub,2013-04-14 06:12:00,
2013-04-14 02:17:00,39.0,35.8,29.97,SSW,213,0.0,0.0,88,0.00,,,0.00,meteohub,2013-04-14 06:17:00,
2013-04-14 02:22:00,38.8,35.6,29.97,SSW,213,0.0,0.0,88,0.00,,,0.00,meteohub,2013-04-14 06:22:00,
2013-04-14 02:27:00,38.8,36.0,29.97,SSW,213,0.0,0.0,89,0.00,,,0.00,meteohub,2013-04-14 06:27:00,
2013-04-14 02:32:00,38.7,35.8,29.97,SSW,213,0.0,0.0,89,0.00,,,0.00,meteohub,2013-04-14 06:32:00,
2013-04-14 02:37:00,38.7,35.8,29.97,SSW,213,0.0,1.0,89,0.00,,,0.00,meteohub,2013-04-14 06:37:00,
2013-04-14 02:42:00,38.7,35.8,29.97,SSW,213,0.0,1.0,89,0.00,,,0.00,meteohub,2013-04-14 06:42:00,
2013-04-14 02:48:00,38.7,35.8,29.97,SSW,213,0.0,0.0,89,0.00,,,0.00,meteohub,2013-04-14 06:48:00,
2013-04-14 02:53:00,38.7,35.8,29.97,SSW,213,0.0,0.0,89,0.00,,,0.00,meteohub,2013-04-14 06:53:00,
2013-04-14 02:58:00,38.8,36.0,29.97,SSW,213,0.0,0.0,89,0.00,,,0.00,meteohub,2013-04-14 06:58:00,
2013-04-14 03:03:00,38.8,36.0,29.96,SSW,213,0.0,0.0,89,0.00,,,0.00,meteohub,2013-04-14 07:03:00,
2013-04-14 03:08:00,38.8,35.6,29.96,SSW,213,0.0,0.0,88,0.00,,,0.00,meteohub,2013-04-14 07:08:00,
2013-04-14 03:13:00,38.8,35.6,29.96,SSW,213,0.0,0.0,88,0.00,,,0.00,meteohub,2013-04-14 07:13:00,
2013-04-14 03:18:00,38.8,35.6,29.97,SSW,213,0.0,0.0,88,0.00,,,0.00,meteohub,2013-04-14 07:18:00,
2013-04-14 03:23:00,38.8,36.0,29.97,SSW,213,0.0,0.0,89,0.00,,,0.00,meteohub,2013-04-14 07:23:00,
2013-04-14 03:28:00,38.7,35.8,29.97,SSW,213,0.0,0.0,89,0.00,,,0.00,meteohub,2013-04-14 07:28:00,
2013-04-14 03:33:00,38.5,35.6,29.96,SSW,213,0.0,0.0,89,0.00,,,0.00,meteohub,2013-04-14 07:33:00,
2013-04-14 03:38:00,38.5,35.6,29.97,SSW,213,0.0,0.0,89,0.00,,,0.00,meteohub,2013-04-14 07:38:00,
2013-04-14 03:43:00,38.7,36.0,29.97,SSW,213,0.0,0.0,90,0.00,,,0.00,meteohub,2013-04-14 07:43:00,
2013-04-14 03:48:00,38.7,36.0,29.97,SSW,213,0.0,0.0,90,0.00,,,0.00,meteohub,2013-04-14 07:48:00,
2013-04-14 03:53:00,38.7,36.0,29.97,SSW,213,0.0,0.0,90,0.00,,,0.00,meteohub,2013-04-14 07:53:00,
2013-04-14 03:58:00,38.5,35.8,29.97,SSW,213,0.0,0.0,90,0.00,,,0.00,meteohub,2013-04-14 07:58:00,
2013-04-14 04:03:00,38.5,35.8,29.97,SSW,213,0.0,0.0,90,0.00,,,0.00,meteohub,2013-04-14 08:03:00,
2013-04-14 04:08:00,38.5,35.8,29.97,SSW,213,0.0,0.0,90,0.00,,,0.00,meteohub,2013-04-14 08:08:00,
2013-04-14 04:13:00,38.5,35.8,29.97,SSW,213,0.0,0.0,90,0.00,,,0.00,meteohub,2013-04-14 08:13:00,
2013-04-14 04:18:00,38.5,35.8,29.97,SSW,213,0.0,0.0,90,0.00,,,0.00,meteohub,2013-04-14 08:18:00,
2013-04-14 04:23:00,38.5,35.8,29.97,SSW,213,0.0,0.0,90,0.00,,,0.00,meteohub,2013-04-14 08:23:00,
2013-04-14 04:28:00,38.5,35.8,29.97,SSW,213,0.0,0.0,90,0.00,,,0.00,meteohub,2013-04-14 08:28:00,
2013-04-14 04:33:00,38.5,35.8,29.97,SSW,213,0.0,0.0,90,0.00,,,0.00,meteohub,2013-04-14 08:33:00,
2013-04-14 04:38:00,38.3,35.6,29.97,SSW,213,0.0,0.0,90,0.00,,,0.00,meteohub,2013-04-14 08:38:00,
2013-04-14 04:43:00,38.3,35.6,29.97,SSW,213,0.0,0.0,90,0.00,,,0.00,meteohub,2013-04-14 08:43:00,
2013-04-14 04:48:00,38.1,35.4,29.97,SSW,213,0.0,2.0,90,0.00,,,0.00,meteohub,2013-04-14 08:48:00,
2013-04-14 04:53:00,38.1,35.4,29.97,SSW,213,0.0,2.0,90,0.00,,,0.00,meteohub,2013-04-14 08:53:00,
2013-04-14 04:58:00,38.1,35.4,29.98,SSW,213,0.0,1.0,90,0.00,,,0.00,meteohub,2013-04-14 08:58:00,
2013-04-14 05:03:00,37.9,35.2,29.99,SSW,213,0.0,0.0,90,0.00,,,0.00,meteohub,2013-04-14 09:03:00,
2013-04-14 05:08:00,37.9,35.2,29.99,SSW,213,0.0,0.0,90,0.00,,,0.00,meteohub,2013-04-14 09:08:00,
2013-04-14 05:13:00,37.9,35.2,29.99,SSW,213,0.0,0.0,90,0.00,,,0.00,meteohub,2013-04-14 09:13:00,
2013-04-14 05:18:00,37.9,35.2,29.99,SSW,213,0.0,0.0,90,0.00,,,0.00,meteohub,2013-04-14 09:18:00,
2013-04-14 05:23:00,37.8,35.1,29.99,SSW,213,0.0,0.0,90,0.00,,,0.00,meteohub,2013-04-14 09:23:00,
2013-04-14 05:28:00,37.8,35.1,29.99,SSW,213,0.0,0.0,90,0.00,,,0.00,meteohub,2013-04-14 09:28:00,
2013-04-14 05:34:00,37.8,35.1,29.99,SSW,213,0.0,0.0,90,0.00,,,0.00,meteohub,2013-04-14 09:34:00,
2013-04-14 05:39:00,37.6,34.9,29.99,SSW,213,0.0,0.0,90,0.00,,,0.00,meteohub,2013-04-14 09:39:00,
2013-04-14 05:44:00,37.6,34.9,30.00,SSW,213,0.0,1.0,90,0.00,,,0.00,meteohub,2013-04-14 09:44:00,
2013-04-14 05:49:00,37.6,34.9,29.99,WSW,243,0.0,1.0,90,0.00,,,0.00,meteohub,2013-04-14 09:49:00,
2013-04-14 05:54:00,37.6,34.9,30.00,West,273,0.0,1.0,90,0.00,,,0.00,meteohub,2013-04-14 09:54:00,
2013-04-14 05:59:00,37.6,34.9,30.00,WNW,298,0.0,2.0,90,0.00,,,0.00,meteohub,2013-04-14 09:59:00,
2013-04-14 06:04:00,37.6,34.9,30.00,WNW,298,0.0,2.0,90,0.00,,,0.00,meteohub,2013-04-14 10:04:00,
2013-04-14 06:09:00,37.6,34.9,30.00,WNW,298,0.0,2.0,90,0.00,,,0.00,meteohub,2013-04-14 10:09:00,
2013-04-14 06:14:00,37.6,34.9,30.00,NW,323,0.0,1.0,90,0.00,,,0.00,meteohub,2013-04-14 10:14:00,
2013-04-14 06:19:00,37.6,34.9,30.00,NW,323,0.0,2.0,90,0.00,,,0.00,meteohub,2013-04-14 10:19:00,
2013-04-14 06:24:00,37.6,34.9,30.01,NW,323,0.0,2.0,90,0.00,,,0.00,meteohub,2013-04-14 10:24:00,
2013-04-14 06:29:00,37.6,34.9,30.01,NW,323,0.0,2.0,90,0.00,,,0.00,meteohub,2013-04-14 10:29:00,
2013-04-14 06:34:00,37.6,34.9,30.01,NW,326,0.0,2.0,90,0.00,,,0.00,meteohub,2013-04-14 10:34:00,
2013-04-14 06:39:00,37.8,35.1,30.02,NNW,327,0.0,0.0,90,0.00,,,0.00,meteohub,2013-04-14 10:39:00,
2013-04-14 06:44:00,37.8,35.1,30.02,NW,326,0.0,0.0,90,0.00,,,0.00,meteohub,2013-04-14 10:44:00,
2013-04-14 06:49:00,37.8,35.1,30.02,NW,326,0.0,0.0,90,0.00,,,0.00,meteohub,2013-04-14 10:49:00,
2013-04-14 06:54:00,37.9,35.2,30.02,NW,326,0.0,0.0,90,0.00,,,0.00,meteohub,2013-04-14 10:54:00,
2013-04-14 06:59:00,37.9,35.1,30.02,NW,326,0.0,0.0,89,0.00,,,0.00,meteohub,2013-04-14 10:59:00,
2013-04-14 07:04:00,37.9,35.1,30.02,NW,326,0.0,1.0,89,0.00,,,0.00,meteohub,2013-04-14 11:04:00,
2013-04-14 07:09:00,37.9,35.1,30.02,NW,326,0.0,1.0,89,0.00,,,0.00,meteohub,2013-04-14 11:09:00,
2013-04-14 07:14:00,38.1,35.2,30.03,NW,326,0.0,1.0,89,0.00,,,0.00,meteohub,2013-04-14 11:14:00,
2013-04-14 07:19:00,38.7,36.0,30.03,NW,326,0.0,1.0,90,0.00,,,0.00,meteohub,2013-04-14 11:19:00,
2013-04-14 07:24:00,39.0,36.3,30.03,NW,326,0.0,1.0,90,0.00,,,0.00,meteohub,2013-04-14 11:24:00,
2013-04-14 07:29:00,39.6,36.5,30.03,NW,326,0.0,1.0,89,0.00,,,0.00,meteohub,2013-04-14 11:29:00,
2013-04-14 07:34:00,39.7,36.5,30.03,NW,326,0.0,1.0,88,0.00,,,0.00,meteohub,2013-04-14 11:34:00,
2013-04-14 07:39:00,39.9,36.3,30.03,NNW,327,0.0,1.0,87,0.00,,,0.00,meteohub,2013-04-14 11:39:00,
2013-04-14 07:44:00,40.3,36.7,30.03,NNW,327,0.0,2.0,87,0.00,,,0.00,meteohub,2013-04-14 11:44:00,
2013-04-14 07:49:00,40.6,36.9,30.04,NW,326,0.0,2.0,86,0.00,,,0.00,meteohub,2013-04-14 11:49:00,
2013-04-14 07:54:00,40.8,37.0,30.04,NNW,327,0.0,2.0,86,0.00,,,0.00,meteohub,2013-04-14 11:54:00,
2013-04-14 07:59:00,41.4,36.9,30.04,NNW,327,0.0,2.0,84,0.00,,,0.00,meteohub,2013-04-14 11:59:00,
2013-04-14 08:04:00,41.7,37.2,30.03,NNW,327,0.0,2.0,84,0.00,,,0.00,meteohub,2013-04-14 12:04:00,
2013-04-14 08:09:00,42.4,37.4,30.04,NE,46,0.0,2.0,82,0.00,,,0.00,meteohub,2013-04-14 12:09:00,
2013-04-14 08:14:00,43.2,37.4,30.04,NNE,20,2.0,2.0,80,0.00,,,0.00,meteohub,2013-04-14 12:14:00,
2013-04-14 08:19:00,43.9,38.1,30.04,North,355,3.0,3.0,80,0.00,,,0.00,meteohub,2013-04-14 12:19:00,
2013-04-14 08:24:00,44.2,37.6,30.04,NNW,344,0.0,3.0,77,0.00,,,0.00,meteohub,2013-04-14 12:24:00,
2013-04-14 08:29:00,44.4,37.4,30.04,NNE,25,0.0,5.0,76,0.00,,,0.00,meteohub,2013-04-14 12:29:00,
2013-04-14 08:34:00,44.4,37.0,30.04,NNW,339,2.0,5.0,75,0.00,,,0.00,meteohub,2013-04-14 12:34:00,
2013-04-14 08:39:00,44.6,37.2,30.04,North,349,0.0,6.0,75,0.00,,,0.00,meteohub,2013-04-14 12:39:00,
2013-04-14 08:44:00,44.8,37.4,30.04,NNW,342,1.0,6.0,75,0.00,,,0.00,meteohub,2013-04-14 12:44:00,
2013-04-14 08:49:00,44.6,37.2,30.04,NE,43,3.0,6.0,75,0.00,,,0.00,meteohub,2013-04-14 12:49:00,
2013-04-14 08:54:00,44.4,36.7,30.04,NNE,32,0.0,7.0,74,0.00,,,0.00,meteohub,2013-04-14 12:54:00,
2013-04-14 08:59:00,44.6,37.2,30.04,NNW,332,0.0,7.0,75,0.00,,,0.00,meteohub,2013-04-14 12:59:00,
2013-04-14 09:04:00,44.8,37.0,30.04,NNE,19,2.0,7.0,74,0.00,,,0.00,meteohub,2013-04-14 13:04:00,
2013-04-14 09:09:00,45.0,37.6,30.04,North,351,0.0,6.0,75,0.00,,,0.00,meteohub,2013-04-14 13:09:00,
2013-04-14 09:14:00,45.0,37.2,30.04,NNW,346,2.0,6.0,74,0.00,,,0.00,meteohub,2013-04-14 13:14:00,
2013-04-14 09:19:00,45.1,37.4,30.04,North,355,1.0,5.0,74,0.00,,,0.00,meteohub,2013-04-14 13:19:00,
2013-04-14 09:24:00,45.1,37.4,30.04,NE,49,4.0,5.0,74,0.00,,,0.00,meteohub,2013-04-14 13:24:00,
2013-04-14 09:29:00,45.3,37.6,30.04,NNE,19,0.0,5.0,74,0.00,,,0.00,meteohub,2013-04-14 13:29:00,
2013-04-14 09:34:00,45.5,37.4,30.05,NNE,26,0.0,5.0,73,0.00,,,0.00,meteohub,2013-04-14 13:34:00,
2013-04-14 09:39:00,45.7,37.9,30.04,NNE,26,0.0,5.0,74,0.00,,,0.00,meteohub,2013-04-14 13:39:00,
2013-04-14 09:45:00,45.9,37.8,30.05,North,0,0.0,4.0,73,0.00,,,0.00,meteohub,2013-04-14 13:45:00,
2013-04-14 09:50:00,46.0,38.3,30.05,North,10,1.0,4.0,74,0.00,,,0.00,meteohub,2013-04-14 13:50:00,
2013-04-14 09:55:00,46.2,38.1,30.05,North,351,0.0,3.0,73,0.00,,,0.00,meteohub,2013-04-14 13:55:00,
2013-04-14 10:00:00,46.6,38.5,30.05,SW,226,3.0,3.0,73,0.00,,,0.00,meteohub,2013-04-14 14:00:00,
2013-04-14 10:05:00,47.1,37.8,30.05,NW,306,1.0,3.0,70,0.00,,,0.00,meteohub,2013-04-14 14:05:00,
2013-04-14 10:10:00,47.7,37.9,30.05,WSW,247,1.0,7.0,69,0.00,,,0.00,meteohub,2013-04-14 14:10:00,
2013-04-14 10:15:00,48.0,37.2,30.05,SW,236,4.0,7.0,66,0.00,,,0.00,meteohub,2013-04-14 14:15:00,
2013-04-14 10:20:00,48.4,36.7,30.05,WNW,283,2.0,9.0,64,0.00,,,0.00,meteohub,2013-04-14 14:20:00,
2013-04-14 10:25:00,48.4,36.3,30.05,WNW,288,0.0,9.0,63,0.00,,,0.00,meteohub,2013-04-14 14:25:00,
2013-04-14 10:30:00,48.4,35.1,30.05,West,267,3.0,9.0,60,0.00,,,0.00,meteohub,2013-04-14 14:30:00,
2013-04-14 10:35:00,48.0,34.9,30.05,West,279,0.0,9.0,60,0.00,,,0.00,meteohub,2013-04-14 14:35:00,
2013-04-14 10:40:00,47.8,34.2,30.06,WNW,293,0.0,9.0,59,0.00,,,0.00,meteohub,2013-04-14 14:40:00,
2013-04-14 10:45:00,47.7,33.6,30.05,WNW,295,1.0,9.0,58,0.00,,,0.00,meteohub,2013-04-14 14:45:00,
2013-04-14 10:50:00,47.7,34.5,30.05,NW,319,0.0,7.0,60,0.00,,,0.00,meteohub,2013-04-14 14:50:00,
2013-04-14 10:55:00,47.7,34.0,30.06,WNW,289,0.0,7.0,59,0.00,,,0.00,meteohub,2013-04-14 14:55:00,
2013-04-14 11:00:00,47.8,34.2,30.06,WSW,253,2.0,7.0,59,0.00,,,0.00,meteohub,2013-04-14 15:00:00,
2013-04-14 11:05:00,47.8,33.8,30.06,WNW,293,0.0,6.0,58,0.00,,,0.00,meteohub,2013-04-14 15:05:00,
2013-04-14 11:10:00,48.0,34.0,30.06,WSW,241,0.0,6.0,58,0.00,,,0.00,meteohub,2013-04-14 15:10:00,
2013-04-14 11:15:00,48.2,33.3,30.06,WNW,284,1.0,6.0,56,0.00,,,0.00,meteohub,2013-04-14 15:15:00,
2013-04-14 11:20:00,48.4,34.3,30.06,WNW,289,0.0,6.0,58,0.00,,,0.00,meteohub,2013-04-14 15:20:00,
2013-04-14 11:25:00,48.6,34.0,30.06,WSW,240,0.0,6.0,57,0.00,,,0.00,meteohub,2013-04-14 15:25:00,
2013-04-14 11:30:00,48.7,33.8,30.06,North,355,2.0,6.0,56,0.00,,,0.00,meteohub,2013-04-14 15:30:00,
2013-04-14 11:35:00,49.3,35.1,30.06,NNW,348,0.0,6.0,58,0.00,,,0.00,meteohub,2013-04-14 15:35:00,
2013-04-14 11:40:00,48.9,33.4,30.06,North,355,2.0,7.0,55,0.00,,,0.00,meteohub,2013-04-14 15:40:00,
2013-04-14 11:45:00,48.7,33.8,30.06,NNW,346,6.0,7.0,56,0.00,,,0.00,meteohub,2013-04-14 15:45:00,
2013-04-14 11:50:00,48.4,33.4,30.06,North,355,2.0,7.0,56,0.00,,,0.00,meteohub,2013-04-14 15:50:00,
2013-04-14 11:55:00,48.0,33.4,30.06,North,355,1.0,11.0,57,0.00,,,0.00,meteohub,2013-04-14 15:55:00,
2013-04-14 12:00:00,48.2,33.3,30.06,NNW,336,6.0,11.0,56,0.00,,,0.00,meteohub,2013-04-14 16:00:00,
2013-04-14 12:05:00,48.4,32.9,30.06,NNW,331,2.0,11.0,55,0.00,,,0.00,meteohub,2013-04-14 16:05:00,
2013-04-14 12:10:00,48.6,32.7,30.06,NW,326,0.0,9.0,54,0.00,,,0.00,meteohub,2013-04-14 16:10:00,
2013-04-14 12:15:00,48.7,33.3,30.07,WNW,286,0.0,6.0,55,0.00,,,0.00,meteohub,2013-04-14 16:15:00,
2013-04-14 12:20:00,48.7,33.3,30.07,NNW,342,3.0,7.0,55,0.00,,,0.00,meteohub,2013-04-14 16:20:00,
2013-04-14 12:25:00,48.7,33.3,30.07,NE,34,10.0,10.0,55,0.00,,,0.00,meteohub,2013-04-14 16:25:00,
2013-04-14 12:30:00,48.6,33.6,30.08,NW,313,1.0,10.0,56,0.00,,,0.00,meteohub,2013-04-14 16:30:00,
2013-04-14 12:36:00,48.4,32.5,30.08,NW,320,1.0,10.0,54,0.00,,,0.00,meteohub,2013-04-14 16:36:00,
2013-04-14 12:41:00,47.8,32.5,30.07,North,355,5.0,10.0,55,0.00,,,0.00,meteohub,2013-04-14 16:41:00,
2013-04-14 12:46:00,47.8,32.5,30.08,NNW,338,2.0,10.0,55,0.00,,,0.00,meteohub,2013-04-14 16:46:00,
2013-04-14 12:51:00,47.7,33.3,30.08,WNW,292,3.0,11.0,57,0.00,,,0.00,meteohub,2013-04-14 16:51:00,
2013-04-14 12:56:00,47.7,33.3,30.08,NW,321,0.0,11.0,57,0.00,,,0.00,meteohub,2013-04-14 16:56:00,
2013-04-14 13:01:00,47.7,33.3,30.08,NW,323,1.0,11.0,57,0.00,,,0.00,meteohub,2013-04-14 17:01:00,
2013-04-14 13:06:00,48.0,33.4,30.07,North,355,4.0,6.0,57,0.00,,,0.00,meteohub,2013-04-14 17:06:00,
2013-04-14 13:11:00,48.6,33.6,30.07,NNW,347,2.0,6.0,56,0.00,,,0.00,meteohub,2013-04-14 17:11:00,
2013-04-14 13:16:00,48.6,32.7,30.08,WNW,290,0.0,6.0,54,0.00,,,0.00,meteohub,2013-04-14 17:16:00,
2013-04-14 13:21:00,48.4,32.5,30.07,WNW,298,0.0,10.0,54,0.00,,,0.00,meteohub,2013-04-14 17:21:00,
2013-04-14 13:26:00,49.5,34.3,30.07,North,355,0.0,10.0,56,0.00,,,0.00,meteohub,2013-04-14 17:26:00,
2013-04-14 13:31:00,50.4,32.9,30.07,WNW,284,1.0,10.0,51,0.00,,,0.00,meteohub,2013-04-14 17:31:00,
2013-04-14 13:36:00,50.7,32.7,30.07,WNW,295,2.0,8.0,50,0.00,,,0.00,meteohub,2013-04-14 17:36:00,
2013-04-14 13:42:00,50.7,32.7,30.07,WSW,242,2.0,8.0,50,0.00,,,0.00,meteohub,2013-04-14 17:42:00,
2013-04-14 13:47:00,51.3,34.7,30.07,West,274,4.0,11.0,53,0.00,,,0.00,meteohub,2013-04-14 17:47:00,
2013-04-14 13:52:00,52.7,34.2,30.07,WNW,294,1.0,11.0,49,0.00,,,0.00,meteohub,2013-04-14 17:52:00,
2013-04-14 13:57:00,53.2,32.4,30.07,WNW,297,1.0,8.0,45,0.00,,,0.00,meteohub,2013-04-14 17:57:00,
2013-04-14 14:02:00,53.1,32.4,30.08,WNW,296,0.0,6.0,45,0.00,,,0.00,meteohub,2013-04-14 18:02:00,
2013-04-14 14:07:00,52.3,32.2,30.08,WNW,300,1.0,8.0,46,0.00,,,0.00,meteohub,2013-04-14 18:07:00,
2013-04-14 14:12:00,51.8,31.6,30.08,NW,323,1.0,8.0,46,0.00,,,0.00,meteohub,2013-04-14 18:12:00,
2013-04-14 14:17:00,51.1,30.6,30.08,WNW,294,2.0,9.0,45,0.00,,,0.00,meteohub,2013-04-14 18:17:00,
2013-04-14 14:22:00,50.5,31.1,30.08,North,351,5.0,9.0,47,0.00,,,0.00,meteohub,2013-04-14 18:22:00,
2013-04-14 14:27:00,50.9,30.9,30.08,WNW,302,2.0,9.0,46,0.00,,,0.00,meteohub,2013-04-14 18:27:00,
2013-04-14 14:32:00,51.3,31.6,30.07,NW,307,1.0,9.0,47,0.00,,,0.00,meteohub,2013-04-14 18:32:00,
2013-04-14 14:37:00,51.3,31.6,30.08,NW,326,1.0,8.0,47,0.00,,,0.00,meteohub,2013-04-14 18:37:00,
2013-04-14 14:42:00,51.3,31.1,30.08,NW,321,1.0,8.0,46,0.00,,,0.00,meteohub,2013-04-14 18:42:00,
2013-04-14 14:47:00,50.5,30.6,30.08,NW,306,1.0,12.0,46,0.00,,,0.00,meteohub,2013-04-14 18:47:00,
2013-04-14 14:53:00,50.9,32.9,30.08,WNW,290,0.0,12.0,50,0.00,,,0.00,meteohub,2013-04-14 18:53:00,
2013-04-14 14:58:00,51.6,32.0,30.09,NNW,333,3.0,12.0,47,0.00,,,0.00,meteohub,2013-04-14 18:58:00,
2013-04-14 15:03:00,52.2,32.5,30.09,WNW,291,3.0,10.0,47,0.00,,,0.00,meteohub,2013-04-14 19:03:00,
2013-04-14 15:08:00,52.0,31.8,30.09,NW,314,1.0,10.0,46,0.00,,,0.00,meteohub,2013-04-14 19:08:00,
2013-04-14 15:13:00,52.3,33.3,30.09,WNW,284,1.0,10.0,48,0.00,,,0.00,meteohub,2013-04-14 19:13:00,
2013-04-14 15:18:00,52.5,31.8,30.08,SW,234,5.0,10.0,45,0.00,,,0.00,meteohub,2013-04-14 19:18:00,
2013-04-14 15:23:00,52.2,31.5,30.09,WNW,286,4.0,5.0,45,0.00,,,0.00,meteohub,2013-04-14 19:23:00,
2013-04-14 15:28:00,51.3,30.6,30.09,WNW,286,1.0,7.0,45,0.00,,,0.00,meteohub,2013-04-14 19:28:00,
2013-04-14 15:33:00,50.5,30.6,30.08,NW,308,0.0,10.0,46,0.00,,,0.00,meteohub,2013-04-14 19:33:00,
2013-04-14 15:38:00,50.4,30.9,30.09,WNW,300,2.0,10.0,47,0.00,,,0.00,meteohub,2013-04-14 19:38:00,
2013-04-14 15:43:00,50.5,31.1,30.09,West,268,5.0,13.0,47,0.00,,,0.00,meteohub,2013-04-14 19:43:00,
2013-04-14 15:48:00,50.5,31.1,30.09,West,276,3.0,13.0,47,0.00,,,0.00,meteohub,2013-04-14 19:48:00,
2013-04-14 15:53:00,50.5,31.1,30.10,WNW,301,1.0,13.0,47,0.00,,,0.00,meteohub,2013-04-14 19:53:00,
2013-04-14 15:58:00,50.4,30.9,30.09,WNW,295,3.0,9.0,47,0.00,,,0.00,meteohub,2013-04-14 19:58:00,
2013-04-14 16:03:00,49.8,30.9,30.09,NW,313,3.0,12.0,48,0.00,,,0.00,meteohub,2013-04-14 20:03:00,
2013-04-14 16:08:00,49.5,30.6,30.09,North,11,5.0,12.0,48,0.00,,,0.00,meteohub,2013-04-14 20:08:00,
2013-04-14 16:13:00,49.5,31.1,30.09,WNW,292,1.0,12.0,49,0.00,,,0.00,meteohub,2013-04-14 20:13:00,
2013-04-14 16:18:00,49.5,31.1,30.09,NW,312,2.0,8.0,49,0.00,,,0.00,meteohub,2013-04-14 20:18:00,
2013-04-14 16:23:00,49.3,30.9,30.09,North,350,2.0,8.0,49,0.00,,,0.00,meteohub,2013-04-14 20:23:00,
2013-04-14 16:28:00,49.3,30.4,30.10,NW,320,0.0,8.0,48,0.00,,,0.00,meteohub,2013-04-14 20:28:00,
2013-04-14 16:33:00,49.3,30.4,30.10,NW,323,1.0,10.0,48,0.00,,,0.00,meteohub,2013-04-14 20:33:00,
2013-04-14 16:39:00,49.1,30.2,30.11,North,5,3.0,10.0,48,0.00,,,0.00,meteohub,2013-04-14 20:39:00,
2013-04-14 16:44:00,48.7,29.8,30.11,NW,326,0.0,9.0,48,0.00,,,0.00,meteohub,2013-04-14 20:44:00,
2013-04-14 16:49:00,48.7,30.4,30.12,NNW,344,3.0,11.0,49,0.00,,,0.00,meteohub,2013-04-14 20:49:00,
2013-04-14 16:54:00,48.9,30.6,30.12,NNW,336,2.0,11.0,49,0.00,,,0.00,meteohub,2013-04-14 20:54:00,
2013-04-14 16:59:00,49.1,30.2,30.12,North,5,2.0,11.0,48,0.00,,,0.00,meteohub,2013-04-14 20:59:00,
2013-04-14 17:04:00,49.1,30.2,30.12,North,5,3.0,8.0,48,0.00,,,0.00,meteohub,2013-04-14 21:04:00,
2013-04-14 17:09:00,48.9,29.7,30.13,NNW,334,4.0,5.0,47,0.00,,,0.00,meteohub,2013-04-14 21:09:00,
2013-04-14 17:14:00,48.7,29.8,30.12,NW,325,2.0,12.0,48,0.00,,,0.00,meteohub,2013-04-14 21:14:00,
2013-04-14 17:19:00,48.9,29.1,30.13,North,0,0.0,12.0,46,0.00,,,0.00,meteohub,2013-04-14 21:19:00,
2013-04-14 17:24:00,49.1,28.8,30.13,NNE,12,4.0,11.0,45,0.00,,,0.00,meteohub,2013-04-14 21:24:00,
2013-04-14 17:29:00,49.1,29.1,30.13,NNW,346,2.0,11.0,46,0.00,,,0.00,meteohub,2013-04-14 21:29:00,
2013-04-14 17:34:00,48.9,29.1,30.14,NNW,329,2.0,13.0,46,0.00,,,0.00,meteohub,2013-04-14 21:34:00,
2013-04-14 17:39:00,48.7,28.9,30.13,North,350,3.0,13.0,46,0.00,,,0.00,meteohub,2013-04-14 21:39:00,
2013-04-14 17:44:00,48.7,28.9,30.13,NNW,339,1.0,13.0,46,0.00,,,0.00,meteohub,2013-04-14 21:44:00,
2013-04-14 17:49:00,48.9,29.1,30.14,North,355,2.0,10.0,46,0.00,,,0.00,meteohub,2013-04-14 21:49:00,
2013-04-14 17:54:00,48.9,28.6,30.14,NW,311,6.0,10.0,45,0.00,,,0.00,meteohub,2013-04-14 21:54:00,
2013-04-14 17:59:00,48.4,28.0,30.14,NNE,14,4.0,11.0,45,0.00,,,0.00,meteohub,2013-04-14 21:59:00,
2013-04-14 18:04:00,48.0,28.2,30.15,North,9,4.0,11.0,46,0.00,,,0.00,meteohub,2013-04-14 22:04:00,
2013-04-14 18:09:00,47.8,28.6,30.14,WNW,301,3.0,13.0,47,0.00,,,0.00,meteohub,2013-04-14 22:09:00,
2013-04-14 18:14:00,47.8,28.6,30.15,NW,311,2.0,13.0,47,0.00,,,0.00,meteohub,2013-04-14 22:14:00,
2013-04-14 18:19:00,48.0,28.8,30.15,North,5,5.0,13.0,47,0.00,,,0.00,meteohub,2013-04-14 22:19:00,
2013-04-14 18:24:00,47.7,27.9,30.15,NNW,330,1.0,10.0,46,0.00,,,0.00,meteohub,2013-04-14 22:24:00,
2013-04-14 18:29:00,47.7,28.4,30.16,WNW,287,2.0,14.0,47,0.00,,,0.00,meteohub,2013-04-14 22:29:00,
2013-04-14 18:34:00,47.3,27.0,30.16,North,9,8.0,14.0,45,0.00,,,0.00,meteohub,2013-04-14 22:34:00,
2013-04-14 18:39:00,47.1,27.3,30.16,NW,309,2.0,14.0,46,0.00,,,0.00,meteohub,2013-04-14 22:39:00,
2013-04-14 18:45:00,46.9,27.7,30.16,NNW,337,2.0,10.0,47,0.00,,,0.00,meteohub,2013-04-14 22:45:00,
2013-04-14 18:50:00,46.9,27.3,30.16,NNW,336,4.0,10.0,46,0.00,,,0.00,meteohub,2013-04-14 22:50:00,
2013-04-14 18:55:00,46.8,27.7,30.17,West,264,5.0,10.0,47,0.00,,,0.00,meteohub,2013-04-14 22:55:00,
2013-04-14 19:00:00,46.6,27.9,30.17,NW,325,2.0,9.0,48,0.00,,,0.00,meteohub,2013-04-14 23:00:00,
2013-04-14 19:05:00,46.4,27.3,30.17,NE,49,2.0,6.0,47,0.00,,,0.00,meteohub,2013-04-14 23:05:00,
2013-04-14 19:10:00,46.2,27.7,30.17,NNW,331,1.0,12.0,48,0.00,,,0.00,meteohub,2013-04-14 23:10:00,
2013-04-14 19:15:00,46.0,27.5,30.18,NNW,338,3.0,13.0,48,0.00,,,0.00,meteohub,2013-04-14 23:15:00,
2013-04-14 19:20:00,45.9,26.8,30.18,NNE,19,0.0,13.0,47,0.00,,,0.00,meteohub,2013-04-14 23:20:00,
2013-04-14 19:25:00,45.7,27.1,30.18,North,351,2.0,13.0,48,0.00,,,0.00,meteohub,2013-04-14 23:25:00,
2013-04-14 19:30:00,45.5,27.5,30.18,NNW,344,0.0,10.0,49,0.00,,,0.00,meteohub,2013-04-14 23:30:00,
2013-04-14 19:35:00,45.3,27.3,30.18,NNW,347,2.0,7.0,49,0.00,,,0.00,meteohub,2013-04-14 23:35:00,
2013-04-14 19:40:00,45.1,27.1,30.19,North,11,0.0,7.0,49,0.00,,,0.00,meteohub,2013-04-14 23:40:00,
2013-04-14 19:45:00,45.1,27.1,30.19,North,10,0.0,7.0,49,0.00,,,0.00,meteohub,2013-04-14 23:45:00,
2013-04-14 19:50:00,45.0,27.0,30.20,NNW,330,1.0,7.0,49,0.00,,,0.00,meteohub,2013-04-14 23:50:00,
2013-04-14 19:55:00,45.0,27.0,30.21,North,355,0.0,8.0,49,0.00,,,0.00,meteohub,2013-04-14 23:55:00,
2013-04-14 20:00:00,44.8,26.8,30.21,NW,319,1.0,9.0,49,0.00,,,0.00,meteohub,2013-04-15 00:00:00,
2013-04-14 20:05:00,44.8,27.3,30.21,WNW,286,0.0,9.0,50,0.00,,,0.00,meteohub,2013-04-15 00:05:00,
2013-04-14 20:10:00,44.4,27.0,30.22,NW,315,0.0,9.0,50,0.00,,,0.00,meteohub,2013-04-15 00:10:00,
2013-04-14 20:15:00,44.2,27.3,30.22,North,349,0.0,9.0,51,0.00,,,0.00,meteohub,2013-04-15 00:15:00,
2013-04-14 20:20:00,44.1,27.1,30.22,NNW,338,0.0,6.0,51,0.00,,,0.00,meteohub,2013-04-15 00:20:00,
2013-04-14 20:25:00,43.9,27.3,30.22,NNW,338,0.0,2.0,52,0.00,,,0.00,meteohub,2013-04-15 00:25:00,
2013-04-14 20:30:00,43.3,27.3,30.22,NNW,338,0.0,2.0,53,0.00,,,0.00,meteohub,2013-04-15 00:30:00,
2013-04-14 20:36:00,43.2,27.1,30.23,NW,320,0.0,0.0,53,0.00,,,0.00,meteohub,2013-04-15 00:36:00,
2013-04-14 20:41:00,43.0,27.9,30.24,NW,320,0.0,2.0,55,0.00,,,0.00,meteohub,2013-04-15 00:41:00,
2013-04-14 20:46:00,42.4,27.5,30.24,NW,320,0.0,2.0,55,0.00,,,0.00,meteohub,2013-04-15 00:46:00,
2013-04-14 20:51:00,42.3,27.3,30.24,NW,320,0.0,2.0,55,0.00,,,0.00,meteohub,2013-04-15 00:51:00,
2013-04-14 20:56:00,42.1,27.5,30.24,NW,320,1.0,2.0,56,0.00,,,0.00,meteohub,2013-04-15 00:56:00,
2013-04-14 21:01:00,41.5,27.5,30.24,NW,320,0.0,2.0,57,0.00,,,0.00,meteohub,2013-04-15 01:01:00,
2013-04-14 21:06:00,41.4,27.3,30.24,NW,320,1.0,2.0,57,0.00,,,0.00,meteohub,2013-04-15 01:06:00,
2013-04-14 21:11:00,41.0,27.9,30.24,West,274,2.0,2.0,59,0.00,,,0.00,meteohub,2013-04-15 01:11:00,
2013-04-14 21:16:00,40.6,27.5,30.25,West,267,2.0,2.0,59,0.00,,,0.00,meteohub,2013-04-15 01:16:00,
2013-04-14 21:21:00,40.5,27.7,30.24,WSW,257,1.0,3.0,60,0.00,,,0.00,meteohub,2013-04-15 01:21:00,
2013-04-14 21:26:00,40.5,28.0,30.25,WSW,257,1.0,3.0,61,0.00,,,0.00,meteohub,2013-04-15 01:26:00,
2013-04-14 21:31:00,40.3,28.2,30.25,WSW,257,0.0,3.0,62,0.00,,,0.00,meteohub,2013-04-15 01:31:00,
2013-04-14 21:37:00,39.9,28.8,30.25,WSW,257,0.0,2.0,64,0.00,,,0.00,meteohub,2013-04-15 01:37:00,
2013-04-14 21:42:00,39.6,28.0,30.25,WSW,257,1.0,2.0,63,0.00,,,0.00,meteohub,2013-04-15 01:42:00,
2013-04-14 21:47:00,39.7,27.0,30.25,WSW,246,3.0,3.0,60,0.00,,,0.00,meteohub,2013-04-15 01:47:00,
2013-04-14 21:52:00,40.3,27.1,30.25,West,270,4.0,4.0,59,0.00,,,0.00,meteohub,2013-04-15 01:52:00,
2013-04-14 21:57:00,41.0,27.3,30.25,WSW,242,0.0,5.0,58,0.00,,,0.00,meteohub,2013-04-15 01:57:00,
2013-04-14 22:02:00,40.6,28.6,30.25,East,99,0.0,5.0,62,0.00,,,0.00,meteohub,2013-04-15 02:02:00,
2013-04-14 22:07:00,39.7,28.6,30.25,East,99,0.0,5.0,64,0.00,,,0.00,meteohub,2013-04-15 02:07:00,
2013-04-14 22:12:00,39.4,27.9,30.25,NNW,336,0.0,3.0,63,0.00,,,0.00,meteohub,2013-04-15 02:12:00,
2013-04-14 22:17:00,39.2,27.3,30.25,East,99,1.0,2.0,62,0.00,,,0.00,meteohub,2013-04-15 02:17:00,
2013-04-14 22:22:00,39.7,27.0,30.25,ENE,58,0.0,3.0,60,0.00,,,0.00,meteohub,2013-04-15 02:22:00,
2013-04-14 22:27:00,39.9,26.8,30.25,ENE,58,0.0,3.0,59,0.00,,,0.00,meteohub,2013-04-15 02:27:00,
2013-04-14 22:32:00,40.3,27.1,30.25,ENE,58,0.0,3.0,59,0.00,,,0.00,meteohub,2013-04-15 02:32:00,
2013-04-14 22:37:00,40.5,27.3,30.25,ENE,58,0.0,2.0,59,0.00,,,0.00,meteohub,2013-04-15 02:37:00,
2013-04-14 22:42:00,40.5,26.8,30.25,NE,49,0.0,2.0,58,0.00,,,0.00,meteohub,2013-04-15 02:42:00,
2013-04-14 22:47:00,40.3,27.9,30.25,NE,49,0.0,2.0,61,0.00,,,0.00,meteohub,2013-04-15 02:47:00,
2013-04-14 22:52:00,39.9,28.0,30.25,NE,49,2.0,2.0,62,0.00,,,0.00,meteohub,2013-04-15 02:52:00,
2013-04-14 22:57:00,39.6,27.7,30.26,West,263,1.0,2.0,62,0.00,,,0.00,meteohub,2013-04-15 02:57:00,
2013-04-14 23:03:00,39.4,27.9,30.25,West,263,0.0,3.0,63,0.00,,,0.00,meteohub,2013-04-15 03:03:00,
2013-04-14 23:08:00,39.0,27.9,30.26,West,263,0.0,3.0,64,0.00,,,0.00,meteohub,2013-04-15 03:08:00,
2013-04-14 23:13:00,38.8,28.0,30.25,West,263,0.0,3.0,65,0.00,,,0.00,meteohub,2013-04-15 03:13:00,
2013-04-14 23:18:00,38.5,27.7,30.26,West,263,0.0,0.0,65,0.00,,,0.00,meteohub,2013-04-15 03:18:00,
2013-04-14 23:23:00,38.1,27.9,30.26,West,263,0.0,0.0,66,0.00,,,0.00,meteohub,2013-04-15 03:23:00,
2013-04-14 23:28:00,37.9,28.0,30.26,West,263,0.0,0.0,67,0.00,,,0.00,meteohub,2013-04-15 03:28:00,
2013-04-14 23:33:00,37.8,27.9,30.26,West,263,0.0,0.0,67,0.00,,,0.00,meteohub,2013-04-15 03:33:00,
2013-04-14 23:38:00,37.6,27.7,30.26,West,263,0.0,0.0,67,0.00,,,0.00,meteohub,2013-04-15 03:38:00,
2013-04-14 23:43:00,37.6,28.0,30.27,West,263,0.0,0.0,68,0.00,,,0.00,meteohub,2013-04-15 03:43:00,
2013-04-14 23:48:00,37.4,27.9,30.26,West,263,0.0,2.0,68,0.00,,,0.00,meteohub,2013-04-15 03:48:00,
2013-04-14 23:53:00,37.2,27.3,30.26,West,263,0.0,2.0,67,0.00,,,0.00,meteohub,2013-04-15 03:53:00,
2013-04-14 23:58:00,37.0,28.2,30.26,West,263,0.0,2.0,70,0.00,,,0.00,meteohub,2013-04-15 03:58:00,